| time (UTC) | temp F | wind direction | speed MPH | gust MPH | rain 1hr in | rain 24hr in | rain mn in | humidity % | barometer mb |
| 20260506033407 | 57 | 40 | 3.0 | 9.0 | 0.16 | 2.35 | 1.15 | 87 | 1008.8 |
| 20260506031907 | 57 | 18 | 6.0 | 13.0 | 0.37 | 2.40 | 1.15 | 89 | 1008.7 |
| 20260506031409 | 57 | 58 | 5.0 | 12.0 | 0.50 | 2.42 | 1.15 | 89 | 1008.6 |
| 20260506030906 | 57 | 78 | 2.0 | 5.0 | 0.64 | 2.42 | 1.15 | 89 | 1008.8 |
| 20260506024906 | 58 | 273 | 0.0 | 3.0 | 0.92 | 2.41 | 1.14 | 89 | 1009.0 |
| 20260506023906 | 58 | 58 | 1.0 | 3.0 | 0.88 | 2.35 | 1.08 | 89 | 1010.0 |
| 20260506021906 | 59 | 343 | 2.0 | 3.0 | 0.69 | 2.10 | 0.78 | 89 | 1009.6 |
| 20260506020906 | 59 | 315 | 2.0 | 6.0 | 0.45 | 1.85 | 0.51 | 89 | 1009.7 |
| 20260506020406 | 59 | 327 | 1.0 | 2.0 | 0.27 | 1.66 | 0.31 | 88 | 1010.0 |
| 20260506013410 | 60 | 328 | 1.0 | 5.0 | 0.17 | 1.54 | 0.17 | 87 | 1010.4 |
| 20260506011908 | 60 | 36 | 1.0 | 3.0 | 0.08 | 1.46 | 0.09 | 86 | 1010.3 |
| 20260506011406 | 60 | 107 | 1.0 | 3.0 | 0.06 | 1.45 | 0.07 | 86 | 1010.4 |
| 20260506010906 | 60 | 24 | 2.0 | 8.0 | 0.06 | 1.45 | 0.06 | 86 | 1010.2 |
| 20260506010406 | 60 | 40 | 2.0 | 6.0 | 0.05 | 1.43 | 0.05 | 85 | 1010.1 |
| 20260506004909 | 61 | 49 | 1.0 | 3.0 | 0.02 | 1.41 | 0.02 | 85 | 1010.3 |
| 20260506004406 | 61 | 109 | 1.0 | 2.0 | 0.01 | 1.40 | 0.01 | 84 | 1010.5 |
| 20260506003906 | 61 | 104 | 1.0 | 3.0 | 0.01 | 1.40 | 0.01 | 84 | 1010.5 |
| 20260506003407 | 62 | 109 | 2.0 | 6.0 | 0.01 | 1.40 | 0.01 | 84 | 1010.5 |
| 20260506001406 | 62 | 58 | 1.0 | 2.0 | 0.01 | 1.40 | 0.01 | 83 | 1010.6 |
| 20260506000907 | 62 | 61 | 1.0 | 3.0 | 0.00 | 1.39 | 0.00 | 83 | 1010.5 |
| 20260506000408 | 62 | 36 | 1.0 | 3.0 | 0.00 | 1.39 | 0.00 | 83 | 1010.5 |
| 20260505234905 | 62 | 109 | 1.0 | 3.0 | 0.00 | 1.39 | 0.00 | 83 | 1010.8 |
| 20260505234406 | 62 | 77 | 1.0 | 3.0 | 0.00 | 1.39 | 0.00 | 83 | 1010.9 |
| 20260505233909 | 62 | 358 | 1.0 | 2.0 | 0.00 | 1.39 | 0.00 | 83 | 1011.1 |
| 20260505233409 | 62 | 59 | 1.0 | 3.0 | 0.00 | 1.39 | 0.00 | 83 | 1011.2 |
| 20260505231913 | 62 | 47 | 1.0 | 3.0 | 0.00 | 1.39 | 0.00 | 84 | 1011.4 |
| 20260505230905 | 62 | 108 | 1.0 | 5.0 | 0.00 | 1.39 | 0.00 | 84 | 1011.5 |
| 20260505230407 | 62 | 114 | 1.0 | 3.0 | 0.00 | 1.39 | 0.00 | 84 | 1011.7 |
| 20260505224906 | 62 | 45 | 1.0 | 3.0 | 0.00 | 1.39 | 0.00 | 84 | 1011.7 |
| 20260505224406 | 62 | 79 | 1.0 | 3.0 | 0.00 | 1.39 | 0.00 | 84 | 1011.7 |
| 20260505223406 | 62 | 88 | 2.0 | 3.0 | 0.00 | 1.39 | 0.00 | 84 | 1011.9 |
| 20260505221909 | 62 | 146 | 1.0 | 5.0 | 0.00 | 1.39 | 0.00 | 84 | 1012.1 |
| 20260505221405 | 61 | 140 | 2.0 | 3.0 | 0.00 | 1.39 | 0.00 | 85 | 1012.2 |
| 20260505220906 | 61 | 120 | 1.0 | 6.0 | 0.00 | 1.39 | 0.00 | 84 | 1012.1 |
| 20260505220405 | 61 | 112 | 1.0 | 3.0 | 0.00 | 1.39 | 0.00 | 84 | 1012.0 |
| 20260505214907 | 61 | 60 | 2.0 | 3.0 | 0.00 | 1.39 | 1.39 | 84 | 1012.2 |
| 20260505213407 | 61 | 61 | 0.0 | 2.0 | 0.00 | 1.39 | 1.39 | 84 | 1012.1 |
| 20260505211905 | 61 | 55 | 1.0 | 3.0 | 0.00 | 1.39 | 1.39 | 84 | 1012.4 |
| 20260505211406 | 61 | 50 | 1.0 | 3.0 | 0.00 | 1.39 | 1.39 | 84 | 1012.4 |
| 20260505210907 | 61 | 31 | 1.0 | 2.0 | 0.00 | 1.39 | 1.39 | 84 | 1012.3 |
| 20260505210407 | 61 | 20 | 1.0 | 6.0 | 0.00 | 1.39 | 1.39 | 84 | 1012.3 |
| 20260505204905 | 61 | 59 | 1.0 | 3.0 | 0.00 | 1.39 | 1.39 | 84 | 1012.4 |
| 20260505204406 | 61 | 15 | 1.0 | 2.0 | 0.00 | 1.39 | 1.39 | 84 | 1012.4 |
| 20260505203406 | 62 | 104 | 0.0 | 3.0 | 0.00 | 1.39 | 1.39 | 83 | 1012.7 |
| 20260505201906 | 62 | 86 | 1.0 | 3.0 | 0.00 | 1.39 | 1.39 | 83 | 1012.7 |
| 20260505201406 | 62 | 95 | 0.0 | 2.0 | 0.00 | 1.39 | 1.39 | 82 | 1012.8 |
| 20260505200906 | 62 | 97 | 1.0 | 3.0 | 0.00 | 1.39 | 1.39 | 83 | 1012.8 |
| 20260505200406 | 62 | 4 | 1.0 | 3.0 | 0.00 | 1.39 | 1.39 | 83 | 1012.7 |
| 20260505194910 | 62 | 149 | 1.0 | 2.0 | 0.00 | 1.39 | 1.39 | 83 | 1012.8 |
| 20260505194408 | 62 | 121 | 1.0 | 3.0 | 0.00 | 1.39 | 1.39 | 83 | 1012.7 |
| 20260505193905 | 62 | 105 | 1.0 | 2.0 | 0.00 | 1.39 | 1.39 | 83 | 1012.7 |
| 20260505193406 | 62 | 109 | 1.0 | 3.0 | 0.00 | 1.39 | 1.39 | 83 | 1012.6 |
| 20260505191906 | 62 | 116 | 1.0 | 2.0 | 0.00 | 1.39 | 1.39 | 83 | 1012.5 |
| 20260505191405 | 62 | 171 | 2.0 | 3.0 | 0.00 | 1.39 | 1.39 | 83 | 1012.5 |
| 20260505190907 | 62 | 136 | 1.0 | 3.0 | 0.00 | 1.39 | 1.39 | 83 | 1012.5 |
| 20260505184906 | 62 | 128 | 2.0 | 5.0 | 0.00 | 1.39 | 1.39 | 83 | 1012.4 |
| 20260505183405 | 63 | 138 | 2.0 | 6.0 | 0.00 | 1.39 | 1.39 | 82 | 1012.4 |
| 20260505181905 | 63 | 139 | 3.0 | 7.0 | 0.00 | 1.39 | 1.39 | 82 | 1012.4 |
| 20260505181407 | 63 | 149 | 2.0 | 6.0 | 0.00 | 1.39 | 1.39 | 81 | 1012.4 |
| 20260505180407 | 63 | 136 | 3.0 | 6.0 | 0.00 | 1.39 | 1.39 | 81 | 1012.4 |
| 20260505174905 | 64 | 140 | 1.0 | 5.0 | 0.00 | 1.39 | 1.39 | 79 | 1012.3 |
| 20260505174407 | 64 | 136 | 3.0 | 7.0 | 0.00 | 1.39 | 1.39 | 79 | 1012.2 |
| 20260505173406 | 65 | 136 | 2.0 | 7.0 | 0.00 | 1.39 | 1.39 | 78 | 1012.3 |
| 20260505171905 | 65 | 81 | 2.0 | 3.0 | 0.00 | 1.39 | 1.39 | 77 | 1012.2 |
| 20260505170905 | 65 | 229 | 0.0 | 3.0 | 0.00 | 1.39 | 1.39 | 76 | 1012.2 |
| 20260505170412 | 66 | 254 | 1.0 | 2.0 | 0.00 | 1.39 | 1.39 | 77 | 1012.2 |
| 20260505164912 | 66 | 139 | 0.0 | 3.0 | 0.00 | 1.39 | 1.39 | 75 | 1012.3 |
| 20260505164405 | 66 | 120 | 1.0 | 3.0 | 0.00 | 1.39 | 1.39 | 74 | 1012.3 |
| 20260505163905 | 66 | 161 | 1.0 | 3.0 | 0.00 | 1.39 | 1.39 | 74 | 1012.3 |
| 20260505163405 | 66 | 134 | 1.0 | 5.0 | 0.00 | 1.39 | 1.39 | 74 | 1012.2 |
| 20260505161905 | 66 | 162 | 1.0 | 3.0 | 0.00 | 1.39 | 1.39 | 76 | 1012.3 |
| 20260505161408 | 66 | 197 | 1.0 | 2.0 | 0.00 | 1.39 | 1.39 | 76 | 1012.3 |
| 20260505160905 | 65 | 227 | 1.0 | 3.0 | 0.00 | 1.39 | 1.39 | 76 | 1012.3 |
| 20260505160405 | 65 | 237 | 2.0 | 3.0 | 0.00 | 1.39 | 1.39 | 76 | 1012.4 |
| 20260505151905 | 66 | 178 | 0.0 | 3.0 | 0.00 | 1.39 | 1.39 | 76 | 1012.6 |
| 20260505151405 | 66 | 189 | 1.0 | 2.0 | 0.00 | 1.39 | 1.39 | 77 | 1012.6 |
| 20260505150905 | 65 | 138 | 1.0 | 3.0 | 0.00 | 1.39 | 1.39 | 78 | 1012.6 |
| 20260505150405 | 65 | 163 | 0.0 | 7.0 | 0.00 | 1.39 | 1.39 | 78 | 1012.6 |
| 20260505140406 | 67 | 168 | 1.0 | 6.0 | 0.00 | 1.39 | 1.39 | 75 | 1012.6 |
| 20260505124904 | 66 | 199 | 1.0 | 2.0 | 0.00 | 1.39 | 1.39 | 75 | 1012.9 |
| 20260505124405 | 66 | 212 | 1.0 | 3.0 | 0.00 | 1.39 | 1.39 | 76 | 1012.8 |
| 20260505123904 | 67 | 201 | 1.0 | 5.0 | 0.00 | 1.39 | 1.39 | 75 | 1012.8 |
| 20260505123420 | 66 | 209 | 1.0 | 5.0 | 0.00 | 1.39 | 1.39 | 75 | 1012.8 |
| 20260505121905 | 66 | 189 | 1.0 | 6.0 | 0.00 | 1.39 | 1.39 | 76 | 1012.6 |
| 20260505121412 | 65 | 198 | 2.0 | 5.0 | 0.00 | 1.39 | 1.39 | 76 | 1012.8 |
| 20260505120904 | 65 | 150 | 1.0 | 2.0 | 0.00 | 1.39 | 1.39 | 77 | 1012.7 |
| 20260505120412 | 64 | 205 | 0.0 | 3.0 | 0.00 | 1.39 | 1.39 | 76 | 1012.8 |
| 20260505114904 | 66 | 200 | 1.0 | 2.0 | 0.00 | 1.39 | 1.39 | 76 | 1012.8 |
| 20260505113905 | 65 | 163 | 1.0 | 2.0 | 0.00 | 1.39 | 1.39 | 77 | 1012.7 |
| 20260505113411 | 65 | 155 | 1.0 | 3.0 | 0.00 | 1.39 | 1.39 | 77 | 1012.6 |
| 20260505111905 | 65 | 266 | 1.0 | 2.0 | 0.00 | 1.39 | 1.39 | 75 | 1012.8 |
| 20260505110905 | 64 | 230 | 1.0 | 5.0 | 0.00 | 1.39 | 1.39 | 77 | 1012.8 |
| 20260505110404 | 66 | 233 | 2.0 | 5.0 | 0.00 | 1.39 | 1.39 | 80 | 1012.7 |
| 20260505101907 | 62 | 250 | 1.0 | 3.0 | 0.00 | 1.39 | 1.39 | 85 | 1012.8 |
| 20260505101406 | 62 | 238 | 2.0 | 3.0 | 0.00 | 1.39 | 1.39 | 86 | 1012.5 |
| 20260505100904 | 61 | 220 | 0.0 | 1.0 | 0.00 | 1.39 | 1.39 | 89 | 1012.4 |
| 20260505100404 | 60 | 220 | 0.0 | 2.0 | 0.00 | 1.39 | 1.39 | 88 | 1012.5 |
| 20260505094408 | 60 | 220 | 0.0 | 1.0 | 0.00 | 1.39 | 1.39 | 89 | 1012.3 |
| 20260505093904 | 60 | 220 | 0.0 | 0.0 | 0.00 | 1.39 | 1.39 | 89 | 1012.4 |
| 20260505091408 | 60 | 281 | 1.0 | 2.0 | 0.00 | 1.39 | 1.39 | 89 | 1012.3 |
| 20260505090908 | 60 | 279 | 1.0 | 2.0 | 0.00 | 1.39 | 1.39 | 89 | 1012.3 |
| 20260505090407 | 60 | 311 | 1.0 | 3.0 | 0.00 | 1.39 | 1.39 | 89 | 1012.3 |
| 20260505084908 | 60 | 305 | 1.0 | 2.0 | 0.00 | 1.39 | 1.39 | 89 | 1012.2 |
| 20260505083907 | 59 | 338 | 1.0 | 2.0 | 0.00 | 1.39 | 1.39 | 89 | 1012.1 |
| 20260505083407 | 59 | 337 | 0.0 | 2.0 | 0.01 | 1.39 | 1.39 | 89 | 1012.1 |
| 20260505081906 | 58 | 86 | 0.0 | 2.0 | 0.01 | 1.39 | 1.39 | 88 | 1011.9 |
| 20260505081407 | 58 | 161 | 0.0 | 3.0 | 0.01 | 1.39 | 1.39 | 89 | 1011.8 |
| 20260505080408 | 58 | 263 | 1.0 | 7.0 | 0.01 | 1.39 | 1.39 | 88 | 1011.8 |
| 20260505073408 | 58 | 91 | 0.0 | 3.0 | 0.02 | 1.39 | 1.39 | 88 | 1012.4 |
| 20260505071907 | 57 | 32 | 2.0 | 3.0 | 0.04 | 1.39 | 1.39 | 88 | 1012.1 |
| 20260505071407 | 57 | 56 | 1.0 | 6.0 | 0.06 | 1.39 | 1.39 | 88 | 1012.0 |
| 20260505070906 | 57 | 89 | 1.0 | 6.0 | 0.08 | 1.39 | 1.39 | 88 | 1012.0 |
| 20260505070407 | 57 | 53 | 3.0 | 8.0 | 0.09 | 1.39 | 1.39 | 89 | 1011.9 |
| 20260505064906 | 57 | 117 | 1.0 | 3.0 | 0.18 | 1.39 | 1.39 | 89 | 1012.0 |
| 20260505064406 | 57 | 29 | 1.0 | 3.0 | 0.24 | 1.39 | 1.39 | 89 | 1011.8 |
| 20260505063907 | 56 | 67 | 2.0 | 9.0 | 0.37 | 1.38 | 1.38 | 88 | 1011.7 |
| 20260505063407 | 56 | 24 | 5.0 | 15.0 | 0.53 | 1.37 | 1.37 | 88 | 1011.6 |
| 20260505061409 | 56 | 252 | 2.0 | 6.0 | 0.61 | 1.33 | 1.33 | 89 | 1010.8 |
| 20260505060407 | 55 | 309 | 1.0 | 9.0 | 0.62 | 1.29 | 1.29 | 89 | 1011.3 |
| 20260505054906 | 56 | 358 | 3.0 | 9.0 | 0.67 | 1.20 | 1.20 | 89 | 1011.6 |
| 20260505054407 | 57 | 152 | 2.0 | 8.0 | 0.65 | 1.15 | 1.15 | 89 | 1011.4 |
| 20260505053907 | 57 | 340 | 3.0 | 6.0 | 0.54 | 1.01 | 1.01 | 89 | 1011.5 |
| 20260505053407 | 57 | 311 | 1.0 | 3.0 | 0.39 | 0.84 | 0.84 | 89 | 1011.3 |
| 20260505051906 | 57 | 258 | 1.0 | 2.0 | 0.30 | 0.72 | 0.72 | 88 | 1011.0 |
| 20260505051414 | 57 | 189 | 2.0 | 6.0 | 0.30 | 0.72 | 0.72 | 88 | 1010.8 |
| 20260505050907 | 57 | 4 | 2.0 | 5.0 | 0.29 | 0.70 | 0.70 | 88 | 1010.8 |
| 20260505050406 | 57 | 66 | 2.0 | 3.0 | 0.30 | 0.67 | 0.67 | 88 | 1010.9 |
| 20260505041406 | 57 | 14 | 3.0 | 8.0 | 0.29 | 0.42 | 0.42 | 86 | 1011.2 |
| 20260505040907 | 57 | 9 | 2.0 | 3.0 | 0.28 | 0.41 | 0.41 | 86 | 1011.4 |
| 20260505034406 | 57 | 66 | 2.0 | 5.0 | 0.12 | 0.24 | 0.24 | 85 | 1011.6 |
| 20260505033907 | 57 | 67 | 2.0 | 9.0 | 0.08 | 0.20 | 0.20 | 85 | 1011.6 |